Погода в Хаммамете

Тунис     36°22′54″N   10°32′24″E
темп.,
°C
ветер,
м/с
пор.,
м/с
влажн.,
%
обл.,
%
осадки,
мм/ч
давл.,
гПа
погр.,
м
27 июля, вт
вт2701:00+24ююз11810 0.0 101612
04:00+24ююв33730 0.0 101541
07:00+26ююв35643 0.0 1016323
10:00+31ююв67380 0.0 1017817
13:00+33ююв78361 0.0 1016857
16:00+31юв68375 0.0 1015653
19:00+27ююв59510 0.0 1016445
22:00+24ююв48740 0.0 1016230
28 июля, ср
ср2801:00+23ю47680 0.0 1016153
04:00+22ю36690 0.0 1015109
07:00+24ю410600 0.0 1015366
10:00+31ю810290 0.0 1016784
13:00+34ююв79260 0.0 1015965
16:00+33юв68300 0.0 1014646
19:00+28ююв47450 0.0 1015324
22:00+24ююв48740 0.0 1015182
29 июля, чт
чт2901:00+25ю410480 0.0 1014219
04:00+24ююз410480 0.0 1013210
07:00+27ю411350 0.0 1014305
10:00+35ю810170 0.0 1015869
13:00+38ююв89170 0.0 10141252
16:00+35ююв57270 0.0 1013504
19:00+30ююв49440 0.0 1012257
22:00+28ю48520 0.0 1014147
30 июля, пт
пт3001:00+28ююз47290 0.0 1013123
04:00+26ююз33330 0.0 101225
07:00+29юз12290 0.0 101399
10:00+37ю12170 0.0 1013729
13:00+41ссв24130 0.0 10112200
16:00+40ссв76170 0.0 10101161
19:00+33св34320 0.0 1012241
22:00+28ссз00430 0.0 101211
31 июля, сб
сб3101:00+28сз22400 0.0 101211
04:00+27ссз22400 0.0 101114
07:00+30с11350 0.0 101187
10:00+37ююз22202 0.0 1011804
13:00+40ююв54200 0.0 10101110
16:00+37юв44240 0.0 1010565
19:00+33юв23280 0.0 1010115
22:00+31ююз22348 0.0 101132